Regional Weather Roundup
Issued by NWS Bismarck, ND

Home | Current Version | Previous Version | Text Only | Print | Product List | Glossary On
Versions: 1 2 3 4 5 6 7 8 9 10 11 12 13 14 15 16 17 18 19 20 21 22 23 24 25 26 27 28 29 30 31 32 33 34 35 36 37 38 39 40 41 42 43 44 45 46 47 48 49 50
000
ASUS43 KBIS 051610
RWRBIS

NWR BROADCAST TEXT
NATIONAL WEATHER SERVICE BISMARCK ND
1100 AM CDT SAT SEP 05 2015

NOTE: "FAIR" INDICATES FEW OR NO CLOUDS BELOW 12,000 FEET WITH NO
SIGNIFICANT WEATHER AND/OR OBSTRUCTIONS TO VISIBILITY.


CITY           SKY/WX    TMP DP  RH WIND       PRES   REMARKS
WILLISTON      CLOUDY    58  55  90 NE20G25   29.85F
MINOT          LGT RAIN  61  59  93 E17       29.80F
MINOT AFB      NOT AVBL
BISMARCK       CLOUDY    68  67  96 E15       29.81F FOG
DICKINSON      CLOUDY    64  63  96 E22G29    29.80F
GARRISON         N/A     62  60  93 E18       29.87R
HETTINGER ARPT LGT RAIN  65  64  97 E14       29.83F FOG
JAMESTOWN      FOG       67  66  97 NE8       29.86F VSB 1/2
CROSBY         HVY RAIN  54  54 100 NE17G23   29.88F
HARVEY         FOG       61  61 100 E10G18    29.89F VSB 1
HAZEN          PTSUNNY   63  61  94 E9G16     29.86F FOG
LINTON         CLOUDY    72  72 100 E14G20    29.81S FOG
OAKES            N/A     72  68  88 NE7       29.84S FOG
RUGBY          FAIR      64  59  82 E15G22    29.90F
STANLEY        CLOUDY    61  61 100 E13G18    29.85F
$$

CITY           SKY/WX    TMP DP  RH WIND       PRES   REMARKS
GRAND FORKS    FOG       66  64  93 N12       29.88R VSB 1
GRAND FORKS AF CLOUDY    64  64 100 NE10      29.89F
DEVILS LAKE    CLOUDY    63  55  77 NE18      29.89F
FARGO          MOSUNNY   77  71  82 N5        29.83F
CAVALIER       CLOUDY    63  63 100 N12       29.93S
GRAFTON        CLOUDY    64  64 100 N12       29.92S
GWINNER        CLOUDY    72  72 100 NE5       29.84S
LANGDON        CLOUDY    63  63 100 NE14      29.94F FOG
ROLLA          CLOUDY    59  59 100 E10       29.93F
WALHALLA       FAIR      63  63 100 MISG      29.94F FOG
$$

CITY           SKY/WX    TMP DP  RH WIND       PRES   REMARKS
ABERDEEN       CLOUDY    75  70  84 E6        29.81S
MOBRIDGE       CLOUDY    74  72  93 SE12      29.80R
BUFFALO          N/A     71  66  84 E10       29.77R
RAPID CITY     CLOUDY    74  62  66 E9        29.84S
GLASGOW        CLOUDY    55  50  83 NE12      29.89F
SIDNEY         CLOUDY    59  55  88 NE16G35     N/A  THUNDER
WOLF POINT     CLOUDY    60  51  72 NE20      29.84F
GLENDIVE       CLOUDY    59  59 100 NE12      29.84F VSB 1/4
MILES CITY     CLOUDY    60  57  89 NE7       29.84F
BAKER          CLOUDY    65  61  87 CALM      29.86R
$$

CITY           SKY/WX    TMP DP  RH WIND       PRES   REMARKS
BILLINGS       CLOUDY    54  50  86 NE6       29.88R
GREAT FALLS    LGT RAIN  47  46  97 NW7       29.90S
REGINA         CLOUDY    54  50  87 E23G30    29.96R
ESTEVAN        TSTM      55  54  94 N8        29.94R
$$




USA.gov is the U.S. government's official web portal to all federal, state and local government web resources and services.